Wetterdaten: Woche 17.11.14 - 23.11.14 (KW47)
Datum Zeit Temp. A. Feuchte A. Luftdruck Regen Wind Richtung Sonnenschein ET UV Solar Taupunkt Windchill Windben Empfang
17.11.2014 00:00 3,3 C 85 % 1004,9 hPa 0,0 l/m 0,0 km/h (0 Bft) N 0,00 h 0,000 mm 0,0 UV-I 0 W/m 1,0 C 3,3 C 0,0 km/h (0 Bft) 0,00 %
17.11.2014 01:00 3,3 C 85 % 1005,0 hPa 0,0 l/m 0,2 km/h (0 Bft) S 0,00 h 0,000 mm 0,0 UV-I 0 W/m 1,0 C 3,3 C 2,0 km/h (1 Bft) 0,00 %
17.11.2014 02:00 4,9 C 85 % 1004,9 hPa 0,0 l/m 0,5 km/h (0 Bft) N 0,00 h 0,000 mm 0,0 UV-I 0 W/m 2,6 C 4,9 C 2,0 km/h (1 Bft) 0,00 %
17.11.2014 03:00 5,3 C 85 % 1004,7 hPa 0,0 l/m 0,0 km/h (0 Bft) N 0,00 h 0,000 mm 0,0 UV-I 0 W/m 3,0 C 5,3 C 0,0 km/h (0 Bft) 0,00 %
17.11.2014 04:00 5,8 C 85 % 1004,6 hPa 0,0 l/m 0,4 km/h (0 Bft) N 0,00 h 0,000 mm 0,0 UV-I 0 W/m 3,5 C 5,8 C 3,0 km/h (1 Bft) 0,00 %
17.11.2014 05:00 5,9 C 83 % 1004,8 hPa 0,0 l/m 0,2 km/h (0 Bft) O-SO 0,00 h 0,000 mm 0,0 UV-I 0 W/m 3,2 C 5,9 C 1,0 km/h (0 Bft) 0,00 %
17.11.2014 06:00 5,7 C 80 % 1004,9 hPa 0,0 l/m 0,8 km/h (0 Bft) N 0,00 h 0,000 mm 0,0 UV-I 0 W/m 2,5 C 5,7 C 5,2 km/h (1 Bft) 0,00 %
17.11.2014 07:00 5,7 C 80 % 1005,1 hPa 0,0 l/m 0,0 km/h (0 Bft) N 0,00 h 0,000 mm 0,0 UV-I 0 W/m 2,5 C 5,7 C 6,0 km/h (2 Bft) 0,00 %
17.11.2014 08:00 5,7 C 80 % 1005,2 hPa 0,0 l/m 0,0 km/h (0 Bft) N 0,00 h 0,000 mm 0,0 UV-I 0 W/m 2,5 C 5,7 C 8,0 km/h (2 Bft) 0,00 %
17.11.2014 09:00 6,0 C 80 % 1005,0 hPa 0,0 l/m 0,0 km/h (0 Bft) N 0,25 h 0,000 mm 1,0 UV-I 186 W/m 2,7 C 6,0 C 7,3 km/h (2 Bft) 0,00 %
17.11.2014 10:00 7,4 C 77 % 1004,6 hPa 0,0 l/m 0,0 km/h (0 Bft) O 1,00 h 0,000 mm 1,3 UV-I 403 W/m 3,6 C 7,4 C 0,0 km/h (0 Bft) 0,00 %
17.11.2014 11:00 8,6 C 74 % 1004,1 hPa 0,0 l/m 1,1 km/h (0 Bft) N 1,00 h 0,000 mm 1,0 UV-I 445 W/m 4,2 C 8,6 C 2,0 km/h (1 Bft) 0,00 %
17.11.2014 12:00 9,2 C 73 % 1003,7 hPa 0,0 l/m 1,8 km/h (1 Bft) O-SO 1,00 h 0,000 mm 1,0 UV-I 451 W/m 4,6 C 9,2 C 4,0 km/h (1 Bft) 0,00 %
17.11.2014 13:00 9,8 C 71 % 1003,3 hPa 0,0 l/m 2,0 km/h (1 Bft) O-SO 1,00 h 0,000 mm 1,0 UV-I 415 W/m 4,8 C 9,8 C 3,0 km/h (1 Bft) 0,00 %
17.11.2014 14:00 9,7 C 72 % 1003,0 hPa 0,0 l/m 2,2 km/h (1 Bft) O 1,00 h 0,000 mm 1,0 UV-I 260 W/m 4,9 C 9,7 C 4,0 km/h (1 Bft) 0,00 %
17.11.2014 15:00 9,2 C 76 % 1003,1 hPa 0,0 l/m 0,4 km/h (0 Bft) N 0,50 h 0,000 mm 1,0 UV-I 65 W/m 5,3 C 9,2 C 1,0 km/h (0 Bft) 0,00 %
17.11.2014 16:00 9,2 C 77 % 1003,1 hPa 0,0 l/m 0,0 km/h (0 Bft) N 0,00 h 0,000 mm 0,0 UV-I 0 W/m 5,4 C 9,2 C 0,0 km/h (0 Bft) 0,00 %
17.11.2014 17:00 8,9 C 77 % 1003,3 hPa 0,0 l/m 0,0 km/h (0 Bft) N 0,00 h 0,000 mm 0,0 UV-I 0 W/m 5,1 C 8,9 C 0,0 km/h (0 Bft) 0,00 %
17.11.2014 18:00 8,1 C 77 % 1003,2 hPa 0,0 l/m 0,0 km/h (0 Bft) N 0,00 h 0,000 mm 0,0 UV-I 0 W/m 4,3 C 8,1 C 0,0 km/h (0 Bft) 0,00 %
17.11.2014 19:00 7,5 C 78 % 1003,1 hPa 0,0 l/m 1,8 km/h (1 Bft) O-NO 0,00 h 0,000 mm 0,0 UV-I 0 W/m 4,0 C 7,5 C 3,0 km/h (1 Bft) 0,00 %
17.11.2014 20:00 6,8 C 80 % 1003,7 hPa 0,0 l/m 4,5 km/h (1 Bft) O 0,00 h 0,000 mm 0,0 UV-I 0 W/m 3,6 C 6,8 C 7,9 km/h (2 Bft) 0,00 %
17.11.2014 21:00 6,9 C 80 % 1003,7 hPa 0,0 l/m 0,0 km/h (0 Bft) N 0,00 h 0,000 mm 0,0 UV-I 0 W/m 3,7 C 6,9 C 0,0 km/h (0 Bft) 0,00 %
17.11.2014 22:00 6,9 C 80 % 1002,9 hPa 0,0 l/m 0,0 km/h (0 Bft) N 0,00 h 0,000 mm 0,0 UV-I 0 W/m 3,7 C 6,9 C 0,0 km/h (0 Bft) 0,00 %
17.11.2014 23:00 6,9 C 80 % 1002,4 hPa 0,0 l/m 0,0 km/h (0 Bft) N 0,00 h 0,000 mm 0,0 UV-I 0 W/m 3,7 C 6,9 C 0,0 km/h (0 Bft) 0,00 %
18.11.2014 00:00 6,9 C 80 % 1001,8 hPa 0,0 l/m 0,0 km/h (0 Bft) N 0,00 h 0,000 mm 0,0 UV-I 0 W/m 3,7 C 6,9 C 0,0 km/h (0 Bft) 0,00 %
18.11.2014 01:00 6,9 C 80 % 1001,1 hPa 0,0 l/m 0,0 km/h (0 Bft) N 0,00 h 0,000 mm 0,0 UV-I 0 W/m 3,7 C 6,9 C 0,0 km/h (0 Bft) 0,00 %
18.11.2014 02:00 6,9 C 80 % 1000,7 hPa 0,0 l/m 0,0 km/h (0 Bft) N 0,00 h 0,000 mm 0,0 UV-I 0 W/m 3,7 C 6,9 C 0,0 km/h (0 Bft) 0,00 %
18.11.2014 03:00 7,0 C 80 % 1000,5 hPa 0,6 l/m 3,6 km/h (1 Bft) O 0,00 h 0,000 mm 0,0 UV-I 0 W/m 3,9 C 5,7 C 4,9 km/h (1 Bft) 0,00 %
18.11.2014 04:00 7,3 C 81 % 1000,2 hPa 0,6 l/m 11,5 km/h (2 Bft) O 0,00 h 0,000 mm 0,0 UV-I 0 W/m 4,3 C 3,9 C 16,9 km/h (3 Bft) 0,00 %
18.11.2014 05:00 7,4 C 81 % 999,8 hPa 0,0 l/m 6,6 km/h (2 Bft) O-SO 0,00 h 0,000 mm 0,0 UV-I 0 W/m 4,2 C 5,2 C 15,9 km/h (3 Bft) 0,00 %
18.11.2014 06:00 6,9 C 79 % 999,9 hPa 0,0 l/m 11,4 km/h (2 Bft) S 0,00 h 0,000 mm 0,0 UV-I 0 W/m 3,6 C 3,6 C 15,9 km/h (3 Bft) 0,00 %
18.11.2014 07:00 6,7 C 79 % 1000,7 hPa 0,0 l/m 4,3 km/h (1 Bft) O-SO 0,00 h 0,000 mm 0,0 UV-I 0 W/m 3,3 C 6,0 C 7,9 km/h (2 Bft) 0,00 %
18.11.2014 08:00 6,7 C 79 % 1001,5 hPa 0,0 l/m 0,2 km/h (0 Bft) W-SW 0,00 h 0,000 mm 0,0 UV-I 0 W/m 3,3 C 6,7 C 1,0 km/h (0 Bft) 0,00 %
18.11.2014 09:00 5,9 C 78 % 1002,5 hPa 0,0 l/m 4,6 km/h (1 Bft) W-SW 0,00 h 0,000 mm 1,0 UV-I 60 W/m 2,3 C 4,7 C 7,9 km/h (2 Bft) 0,00 %
18.11.2014 10:00 4,9 C 79 % 1003,2 hPa 0,6 l/m 2,7 km/h (1 Bft) W 0,00 h 0,000 mm 1,0 UV-I 74 W/m 1,5 C 4,9 C 5,9 km/h (2 Bft) 0,00 %
18.11.2014 11:00 4,4 C 81 % 1004,0 hPa 1,8 l/m 2,2 km/h (1 Bft) SO 0,00 h 0,000 mm 1,0 UV-I 122 W/m 1,5 C 4,4 C 5,0 km/h (1 Bft) 0,00 %
18.11.2014 12:00 4,6 C 81 % 1004,3 hPa 0,9 l/m 1,8 km/h (1 Bft) W-SW 0,00 h 0,000 mm 1,0 UV-I 108 W/m 1,6 C 4,6 C 4,0 km/h (1 Bft) 0,00 %
18.11.2014 13:00 5,2 C 81 % 1004,7 hPa 0,0 l/m 2,1 km/h (1 Bft) W-SW 0,00 h 0,000 mm 1,0 UV-I 90 W/m 2,1 C 5,0 C 4,0 km/h (1 Bft) 0,00 %
18.11.2014 14:00 5,4 C 79 % 1005,2 hPa 0,3 l/m 1,8 km/h (1 Bft) O-NO 0,00 h 0,000 mm 1,0 UV-I 77 W/m 2,0 C 5,4 C 4,0 km/h (1 Bft) 0,00 %
18.11.2014 15:00 5,1 C 80 % 1005,8 hPa 0,3 l/m 2,9 km/h (1 Bft) S-SW 0,00 h 0,000 mm 0,0 UV-I 23 W/m 2,0 C 4,9 C 6,0 km/h (2 Bft) 0,00 %
18.11.2014 16:00 5,0 C 81 % 1006,3 hPa 0,6 l/m 1,7 km/h (1 Bft) SW 0,00 h 0,000 mm 0,0 UV-I 0 W/m 2,0 C 5,0 C 3,0 km/h (1 Bft) 0,00 %
18.11.2014 17:00 5,3 C 80 % 1006,8 hPa 0,0 l/m 1,9 km/h (1 Bft) O-NO 0,00 h 0,000 mm 0,0 UV-I 0 W/m 2,1 C 5,3 C 3,0 km/h (1 Bft) 0,00 %
18.11.2014 18:00 5,3 C 80 % 1007,4 hPa 0,3 l/m 1,1 km/h (1 Bft) SW 0,00 h 0,000 mm 0,0 UV-I 0 W/m 2,2 C 5,3 C 5,0 km/h (1 Bft) 0,00 %
18.11.2014 19:00 5,6 C 78 % 1007,9 hPa 0,0 l/m 0,4 km/h (0 Bft) N 0,00 h 0,000 mm 0,0 UV-I 0 W/m 2,0 C 5,6 C 3,0 km/h (1 Bft) 0,00 %
18.11.2014 20:00 5,4 C 79 % 1008,5 hPa 0,0 l/m 0,8 km/h (0 Bft) SW 0,00 h 0,000 mm 0,0 UV-I 0 W/m 2,0 C 5,4 C 2,0 km/h (1 Bft) 0,00 %
18.11.2014 21:00 5,1 C 80 % 1009,0 hPa 0,0 l/m 0,0 km/h (0 Bft) N 0,00 h 0,000 mm 0,0 UV-I 0 W/m 1,9 C 5,1 C 0,0 km/h (0 Bft) 0,00 %
18.11.2014 22:00 4,6 C 82 % 1009,4 hPa 0,0 l/m 0,0 km/h (0 Bft) N 0,00 h 0,000 mm 0,0 UV-I 0 W/m 1,7 C 4,6 C 0,0 km/h (0 Bft) 0,00 %
18.11.2014 23:00 4,4 C 82 % 1009,6 hPa 0,0 l/m 0,0 km/h (0 Bft) N 0,00 h 0,000 mm 0,0 UV-I 0 W/m 1,7 C 4,4 C 0,0 km/h (0 Bft) 0,00 %
19.11.2014 00:00 4,6 C 81 % 1009,8 hPa 0,0 l/m 0,0 km/h (0 Bft) N 0,00 h 0,000 mm 0,0 UV-I 0 W/m 1,6 C 4,6 C 0,0 km/h (0 Bft) 0,00 %
19.11.2014 01:00 4,6 C 81 % 1010,0 hPa 0,0 l/m 0,0 km/h (0 Bft) N 0,00 h 0,000 mm 0,0 UV-I 0 W/m 1,6 C 4,6 C 0,0 km/h (0 Bft) 0,00 %
19.11.2014 02:00 5,1 C 79 % 1010,3 hPa 0,0 l/m 1,3 km/h (1 Bft) SW 0,00 h 0,000 mm 0,0 UV-I 0 W/m 1,8 C 5,1 C 3,0 km/h (1 Bft) 0,00 %
19.11.2014 03:00 5,6 C 77 % 1010,5 hPa 0,0 l/m 1,6 km/h (1 Bft) N 0,00 h 0,000 mm 0,0 UV-I 0 W/m 1,9 C 5,6 C 4,0 km/h (1 Bft) 0,00 %
19.11.2014 04:00 5,5 C 77 % 1011,1 hPa 0,0 l/m 0,6 km/h (0 Bft) N 0,00 h 0,000 mm 0,0 UV-I 0 W/m 1,7 C 5,5 C 4,0 km/h (1 Bft) 0,00 %
19.11.2014 05:00 6,0 C 74 % 1011,5 hPa 0,0 l/m 0,3 km/h (0 Bft) N 0,00 h 0,000 mm 0,0 UV-I 0 W/m 1,7 C 6,0 C 2,0 km/h (1 Bft) 0,00 %
19.11.2014 06:00 6,3 C 73 % 1012,0 hPa 0,0 l/m 0,7 km/h (0 Bft) S-SW 0,00 h 0,000 mm 0,0 UV-I 0 W/m 1,8 C 6,3 C 3,0 km/h (1 Bft) 0,00 %
19.11.2014 07:00 6,2 C 75 % 1012,8 hPa 0,0 l/m 1,7 km/h (1 Bft) N-NW 0,00 h 0,000 mm 0,0 UV-I 0 W/m 2,1 C 6,2 C 4,0 km/h (1 Bft) 0,00 %
19.11.2014 08:00 6,1 C 78 % 1013,9 hPa 0,3 l/m 3,1 km/h (1 Bft) W-SW 0,25 h 0,000 mm 1,0 UV-I 65 W/m 2,6 C 5,7 C 5,9 km/h (2 Bft) 0,00 %
19.11.2014 09:00 6,2 C 79 % 1014,8 hPa 0,3 l/m 1,0 km/h (0 Bft) SW 0,00 h 0,000 mm 1,0 UV-I 63 W/m 2,8 C 6,2 C 3,0 km/h (1 Bft) 0,00 %
19.11.2014 10:00 6,1 C 79 % 1016,0 hPa 0,0 l/m 2,5 km/h (1 Bft) W-SW 0,00 h 0,000 mm 1,0 UV-I 138 W/m 2,6 C 6,1 C 6,9 km/h (2 Bft) 0,00 %
19.11.2014 11:00 6,0 C 80 % 1016,7 hPa 0,6 l/m 2,9 km/h (1 Bft) W-SW 0,00 h 0,000 mm 1,0 UV-I 179 W/m 2,8 C 6,0 C 5,0 km/h (1 Bft) 0,00 %
19.11.2014 12:00 5,7 C 80 % 1017,2 hPa 1,5 l/m 3,4 km/h (1 Bft) W-SW 0,00 h 0,000 mm 1,0 UV-I 85 W/m 2,5 C 4,7 C 6,9 km/h (2 Bft) 0,00 %
19.11.2014 13:00 5,8 C 82 % 1018,0 hPa 1,5 l/m 1,0 km/h (0 Bft) W-SW 0,00 h 0,000 mm 0,0 UV-I 23 W/m 2,9 C 5,8 C 4,0 km/h (1 Bft) 0,00 %
19.11.2014 14:00 5,8 C 81 % 1018,8 hPa 0,3 l/m 1,0 km/h (0 Bft) N 0,00 h 0,000 mm 0,0 UV-I 0 W/m 2,8 C 5,8 C 3,0 km/h (1 Bft) 0,00 %
19.11.2014 15:00 5,9 C 81 % 1019,6 hPa 0,0 l/m 1,0 km/h (0 Bft) W-SW 0,00 h 0,000 mm 0,0 UV-I 0 W/m 2,9 C 5,9 C 3,0 km/h (1 Bft) 0,00 %
19.11.2014 16:00 5,9 C 81 % 1020,7 hPa 0,3 l/m 1,6 km/h (1 Bft) S 0,00 h 0,000 mm 0,0 UV-I 0 W/m 2,9 C 5,9 C 5,0 km/h (1 Bft) 0,00 %
19.11.2014 17:00 5,9 C 80 % 1021,6 hPa 0,0 l/m 3,9 km/h (1 Bft) W-SW 0,00 h 0,000 mm 0,0 UV-I 0 W/m 2,7 C 5,8 C 6,9 km/h (2 Bft) 0,00 %
19.11.2014 18:00 5,7 C 80 % 1022,5 hPa 0,0 l/m 0,1 km/h (0 Bft) N 0,00 h 0,000 mm 0,0 UV-I 0 W/m 2,5 C 5,7 C 1,0 km/h (0 Bft) 0,00 %
19.11.2014 19:00 5,7 C 80 % 1023,0 hPa 0,0 l/m 0,2 km/h (0 Bft) W-SW 0,00 h 0,000 mm 0,0 UV-I 0 W/m 2,5 C 5,7 C 1,0 km/h (0 Bft) 0,00 %
19.11.2014 20:00 5,7 C 79 % 1023,6 hPa 0,0 l/m 1,1 km/h (1 Bft) N 0,00 h 0,000 mm 0,0 UV-I 0 W/m 2,4 C 5,7 C 5,0 km/h (1 Bft) 0,00 %
19.11.2014 21:00 5,7 C 79 % 1024,3 hPa 0,0 l/m 0,3 km/h (0 Bft) SW 0,00 h 0,000 mm 0,0 UV-I 0 W/m 2,3 C 5,7 C 2,0 km/h (1 Bft) 0,00 %
19.11.2014 22:00 5,7 C 79 % 1024,7 hPa 0,0 l/m 1,5 km/h (1 Bft) W-SW 0,00 h 0,000 mm 0,0 UV-I 0 W/m 2,4 C 5,7 C 4,0 km/h (1 Bft) 0,00 %
19.11.2014 23:00 5,7 C 80 % 1025,0 hPa 0,0 l/m 0,2 km/h (0 Bft) N 0,00 h 0,000 mm 0,0 UV-I 0 W/m 2,5 C 5,7 C 2,0 km/h (1 Bft) 0,00 %
20.11.2014 00:00 5,6 C 80 % 1025,1 hPa 0,0 l/m 0,0 km/h (0 Bft) N 0,00 h 0,000 mm 0,0 UV-I 0 W/m 2,4 C 5,6 C 0,0 km/h (0 Bft) 0,00 %
20.11.2014 01:00 5,6 C 80 % 1025,7 hPa 0,0 l/m 0,0 km/h (0 Bft) N 0,00 h 0,000 mm 0,0 UV-I 0 W/m 2,3 C 5,6 C 0,0 km/h (0 Bft) 0,00 %
20.11.2014 02:00 5,5 C 79 % 1025,8 hPa 0,0 l/m 0,0 km/h (0 Bft) N 0,00 h 0,000 mm 0,0 UV-I 0 W/m 2,2 C 5,5 C 0,0 km/h (0 Bft) 0,00 %
20.11.2014 03:00 5,3 C 81 % 1025,6 hPa 0,0 l/m 0,0 km/h (0 Bft) N 0,00 h 0,000 mm 0,0 UV-I 0 W/m 2,2 C 5,3 C 0,0 km/h (0 Bft) 0,00 %
20.11.2014 04:00 5,2 C 81 % 1026,1 hPa 0,0 l/m 0,0 km/h (0 Bft) N 0,00 h 0,000 mm 0,0 UV-I 0 W/m 2,2 C 5,2 C 0,0 km/h (0 Bft) 0,00 %
20.11.2014 05:00 5,2 C 80 % 1026,1 hPa 0,0 l/m 0,0 km/h (0 Bft) N 0,00 h 0,000 mm 0,0 UV-I 0 W/m 2,0 C 5,2 C 0,0 km/h (0 Bft) 0,00 %
20.11.2014 06:00 5,1 C 80 % 1026,1 hPa 0,0 l/m 0,0 km/h (0 Bft) N 0,00 h 0,000 mm 0,0 UV-I 0 W/m 2,0 C 5,1 C 0,0 km/h (0 Bft) 0,00 %
20.11.2014 07:00 4,9 C 81 % 1026,5 hPa 0,0 l/m 0,0 km/h (0 Bft) N 0,00 h 0,000 mm 0,0 UV-I 7 W/m 1,9 C 4,9 C 0,0 km/h (0 Bft) 0,00 %
20.11.2014 08:00 5,3 C 81 % 1026,9 hPa 0,0 l/m 0,0 km/h (0 Bft) N 0,50 h 0,000 mm 1,0 UV-I 92 W/m 2,2 C 5,3 C 0,0 km/h (0 Bft) 0,00 %
20.11.2014 09:00 6,4 C 77 % 1026,7 hPa 0,0 l/m 0,0 km/h (0 Bft) N 0,00 h 0,000 mm 1,0 UV-I 73 W/m 2,6 C 6,4 C 0,0 km/h (0 Bft) 0,00 %
20.11.2014 10:00 7,6 C 72 % 1026,5 hPa 0,0 l/m 0,1 km/h (0 Bft) N 0,00 h 0,000 mm 1,3 UV-I 103 W/m 2,9 C 7,6 C 1,0 km/h (0 Bft) 0,00 %
20.11.2014 11:00 7,7 C 70 % 1026,0 hPa 0,0 l/m 0,2 km/h (0 Bft) N 0,00 h 0,000 mm 1,0 UV-I 133 W/m 2,6 C 7,7 C 1,0 km/h (0 Bft) 0,00 %
20.11.2014 12:00 7,8 C 69 % 1025,4 hPa 0,0 l/m 0,0 km/h (0 Bft) N 0,00 h 0,000 mm 1,3 UV-I 155 W/m 2,4 C 7,8 C 0,0 km/h (0 Bft) 0,00 %
20.11.2014 13:00 8,1 C 65 % 1025,1 hPa 0,0 l/m 0,0 km/h (0 Bft) N 0,50 h 0,000 mm 1,0 UV-I 308 W/m 1,9 C 8,1 C 0,0 km/h (0 Bft) 0,00 %
20.11.2014 14:00 7,8 C 68 % 1024,9 hPa 0,0 l/m 0,1 km/h (0 Bft) N 0,75 h 0,000 mm 1,0 UV-I 181 W/m 2,3 C 7,8 C 1,0 km/h (0 Bft) 0,00 %
20.11.2014 15:00 7,1 C 69 % 1025,2 hPa 0,0 l/m 0,0 km/h (0 Bft) N 0,00 h 0,000 mm 0,0 UV-I 18 W/m 1,7 C 7,1 C 0,0 km/h (0 Bft) 0,00 %
20.11.2014 16:00 6,7 C 69 % 1025,5 hPa 0,0 l/m 0,0 km/h (0 Bft) N 0,00 h 0,000 mm 0,0 UV-I 0 W/m 1,4 C 6,7 C 0,0 km/h (0 Bft) 0,00 %
20.11.2014 17:00 6,2 C 73 % 1025,4 hPa 0,0 l/m 0,0 km/h (0 Bft) N 0,00 h 0,000 mm 0,0 UV-I 0 W/m 1,8 C 6,2 C 0,0 km/h (0 Bft) 0,00 %
20.11.2014 18:00 5,9 C 75 % 1025,4 hPa 0,0 l/m 0,0 km/h (0 Bft) N 0,00 h 0,000 mm 0,0 UV-I 0 W/m 1,7 C 5,9 C 0,0 km/h (0 Bft) 0,00 %
20.11.2014 19:00 5,5 C 77 % 1025,2 hPa 0,0 l/m 0,0 km/h (0 Bft) N 0,00 h 0,000 mm 0,0 UV-I 0 W/m 1,7 C 5,5 C 0,0 km/h (0 Bft) 0,00 %
20.11.2014 20:00 5,2 C 80 % 1025,6 hPa 0,0 l/m 0,0 km/h (0 Bft) N 0,00 h 0,000 mm 0,0 UV-I 0 W/m 2,0 C 5,2 C 0,0 km/h (0 Bft) 0,00 %
20.11.2014 21:00 5,1 C 77 % 1025,8 hPa 0,0 l/m 0,0 km/h (0 Bft) N 0,00 h 0,000 mm 0,0 UV-I 0 W/m 1,5 C 5,1 C 0,0 km/h (0 Bft) 0,00 %
20.11.2014 22:00 5,2 C 73 % 1026,0 hPa 0,0 l/m 0,1 km/h (0 Bft) N 0,00 h 0,000 mm 0,0 UV-I 0 W/m 0,6 C 5,2 C 1,0 km/h (0 Bft) 0,00 %
20.11.2014 23:00 4,7 C 75 % 1025,9 hPa 0,0 l/m 0,0 km/h (0 Bft) N 0,00 h 0,000 mm 0,0 UV-I 0 W/m 0,6 C 4,7 C 0,0 km/h (0 Bft) 0,00 %
21.11.2014 00:00 4,6 C 75 % 1025,7 hPa 0,0 l/m 0,0 km/h (0 Bft) N 0,00 h 0,000 mm 0,0 UV-I 0 W/m 0,5 C 4,6 C 0,0 km/h (0 Bft) 0,00 %
21.11.2014 01:00 4,3 C 77 % 1025,5 hPa 0,0 l/m 0,0 km/h (0 Bft) N 0,00 h 0,000 mm 0,0 UV-I 0 W/m 0,7 C 4,3 C 0,0 km/h (0 Bft) 0,00 %
21.11.2014 02:00 4,3 C 77 % 1025,5 hPa 0,0 l/m 0,0 km/h (0 Bft) N 0,00 h 0,000 mm 0,0 UV-I 0 W/m 0,5 C 4,3 C 0,0 km/h (0 Bft) 0,00 %
21.11.2014 03:00 4,2 C 77 % 1025,4 hPa 0,0 l/m 0,0 km/h (0 Bft) N 0,00 h 0,000 mm 0,0 UV-I 0 W/m 0,5 C 4,2 C 0,0 km/h (0 Bft) 0,00 %
21.11.2014 04:00 4,0 C 77 % 1025,4 hPa 0,0 l/m 0,0 km/h (0 Bft) N 0,00 h 0,000 mm 0,0 UV-I 0 W/m 0,2 C 4,0 C 0,0 km/h (0 Bft) 0,00 %
21.11.2014 05:00 4,4 C 74 % 1025,2 hPa 0,0 l/m 0,4 km/h (0 Bft) O-SO 0,00 h 0,000 mm 0,0 UV-I 0 W/m 0,2 C 4,4 C 1,0 km/h (0 Bft) 0,00 %
21.11.2014 06:00 4,2 C 75 % 1024,9 hPa 0,0 l/m 0,1 km/h (0 Bft) N 0,00 h 0,000 mm 0,0 UV-I 0 W/m 0,2 C 4,2 C 1,0 km/h (0 Bft) 0,00 %
21.11.2014 07:00 4,1 C 76 % 1025,0 hPa 0,0 l/m 0,0 km/h (0 Bft) N 0,25 h 0,000 mm 0,0 UV-I 31 W/m 0,1 C 4,1 C 0,0 km/h (0 Bft) 0,00 %
21.11.2014 08:00 4,2 C 74 % 1025,1 hPa 0,0 l/m 0,2 km/h (0 Bft) O-SO 0,00 h 0,000 mm 1,0 UV-I 62 W/m -0,0 C 4,2 C 2,0 km/h (1 Bft) 0,00 %
21.11.2014 09:00 5,6 C 70 % 1024,6 hPa 0,0 l/m 2,7 km/h (1 Bft) SO 0,00 h 0,000 mm 1,0 UV-I 88 W/m 0,6 C 5,6 C 5,9 km/h (2 Bft) 0,00 %
21.11.2014 10:00 6,0 C 70 % 1024,4 hPa 0,0 l/m 4,9 km/h (1 Bft) O 0,00 h 0,000 mm 1,0 UV-I 126 W/m 1,0 C 5,6 C 9,9 km/h (2 Bft) 0,00 %
21.11.2014 11:00 6,3 C 69 % 1023,9 hPa 0,0 l/m 5,9 km/h (2 Bft) O-NO 0,00 h 0,000 mm 2,0 UV-I 159 W/m 1,0 C 5,3 C 10,9 km/h (2 Bft) 0,00 %
21.11.2014 12:00 6,1 C 69 % 1023,5 hPa 0,0 l/m 7,5 km/h (2 Bft) O-SO 0,50 h 0,000 mm 1,0 UV-I 203 W/m 0,8 C 3,7 C 11,9 km/h (2 Bft) 0,00 %
21.11.2014 13:00 6,6 C 67 % 1022,9 hPa 0,0 l/m 7,1 km/h (2 Bft) O 1,00 h 0,000 mm 1,0 UV-I 357 W/m 0,8 C 4,9 C 9,9 km/h (2 Bft) 0,00 %
21.11.2014 14:00 6,7 C 66 % 1022,2 hPa 0,0 l/m 3,7 km/h (1 Bft) O 1,00 h 0,000 mm 1,0 UV-I 281 W/m 0,7 C 6,4 C 6,9 km/h (2 Bft) 0,00 %
21.11.2014 15:00 6,1 C 68 % 1022,3 hPa 0,0 l/m 5,3 km/h (1 Bft) O 0,75 h 0,000 mm 1,0 UV-I 77 W/m 0,7 C 5,1 C 8,9 km/h (2 Bft) 0,00 %
21.11.2014 16:00 4,8 C 73 % 1022,4 hPa 0,0 l/m 5,2 km/h (1 Bft) O 0,00 h 0,000 mm 0,0 UV-I 0 W/m 0,3 C 4,8 C 6,9 km/h (2 Bft) 0,00 %
21.11.2014 17:00 4,0 C 75 % 1022,8 hPa 0,0 l/m 2,2 km/h (1 Bft) O 0,00 h 0,000 mm 0,0 UV-I 0 W/m -0,0 C 4,0 C 5,9 km/h (2 Bft) 0,00 %
21.11.2014 18:00 3,6 C 76 % 1023,1 hPa 0,0 l/m 2,8 km/h (1 Bft) O-NO 0,00 h 0,000 mm 0,0 UV-I 0 W/m -0,3 C 3,5 C 4,9 km/h (1 Bft) 0,00 %
21.11.2014 19:00 3,2 C 76 % 1023,4 hPa 0,0 l/m 1,4 km/h (1 Bft) O-NO 0,00 h 0,000 mm 0,0 UV-I 0 W/m -0,6 C 3,2 C 5,9 km/h (2 Bft) 0,00 %
21.11.2014 20:00 2,8 C 76 % 1023,5 hPa 0,0 l/m 5,2 km/h (1 Bft) O 0,00 h 0,000 mm 0,0 UV-I 0 W/m -1,0 C 2,6 C 5,9 km/h (2 Bft) 0,00 %
21.11.2014 21:00 2,6 C 76 % 1023,6 hPa 0,0 l/m 4,8 km/h (1 Bft) O-SO 0,00 h 0,000 mm 0,0 UV-I 0 W/m -1,1 C 1,3 C 8,9 km/h (2 Bft) 0,00 %
21.11.2014 22:00 2,2 C 74 % 1023,7 hPa 0,0 l/m 3,8 km/h (1 Bft) O 0,00 h 0,000 mm 0,0 UV-I 0 W/m -1,9 C 1,5 C 6,9 km/h (2 Bft) 0,00 %
21.11.2014 23:00 1,9 C 76 % 1023,8 hPa 0,0 l/m 2,0 km/h (1 Bft) O-SO 0,00 h 0,000 mm 0,0 UV-I 0 W/m -1,8 C 1,9 C 4,0 km/h (1 Bft) 0,00 %
22.11.2014 00:00 2,5 C 79 % 1023,7 hPa 0,0 l/m 3,5 km/h (1 Bft) O-NO 0,00 h 0,000 mm 0,0 UV-I 0 W/m -0,8 C 2,2 C 5,9 km/h (2 Bft) 0,00 %
22.11.2014 01:00 2,5 C 80 % 1023,4 hPa 0,0 l/m 0,9 km/h (0 Bft) O 0,00 h 0,000 mm 0,0 UV-I 0 W/m -0,6 C 2,5 C 4,0 km/h (1 Bft) 0,00 %
22.11.2014 02:00 2,5 C 80 % 1023,3 hPa 0,0 l/m 3,0 km/h (1 Bft) O-SO 0,00 h 0,000 mm 0,0 UV-I 0 W/m -0,6 C 2,5 C 4,0 km/h (1 Bft) 0,00 %
22.11.2014 03:00 2,5 C 80 % 1023,2 hPa 0,0 l/m 1,4 km/h (1 Bft) O-SO 0,00 h 0,000 mm 0,0 UV-I 0 W/m -0,7 C 2,5 C 4,0 km/h (1 Bft) 0,00 %
22.11.2014 04:00 2,6 C 79 % 1023,2 hPa 0,0 l/m 0,3 km/h (0 Bft) O-SO 0,00 h 0,000 mm 0,0 UV-I 0 W/m -0,7 C 2,6 C 1,0 km/h (0 Bft) 0,00 %
22.11.2014 05:00 2,3 C 75 % 1023,2 hPa 0,0 l/m 0,9 km/h (0 Bft) N 0,00 h 0,000 mm 0,0 UV-I 0 W/m -1,7 C 2,3 C 2,0 km/h (1 Bft) 0,00 %
22.11.2014 06:00 1,9 C 75 % 1023,5 hPa 0,0 l/m 0,1 km/h (0 Bft) N 0,00 h 0,000 mm 0,0 UV-I 0 W/m -2,1 C 1,9 C 1,0 km/h (0 Bft) 0,00 %
22.11.2014 07:00 1,7 C 76 % 1024,0 hPa 0,0 l/m 0,7 km/h (0 Bft) S 0,00 h 0,000 mm 0,0 UV-I 20 W/m -2,2 C 1,7 C 1,0 km/h (0 Bft) 0,00 %
22.11.2014 08:00 2,1 C 75 % 1024,3 hPa 0,0 l/m 1,2 km/h (1 Bft) O 0,25 h 0,000 mm 1,0 UV-I 51 W/m -1,9 C 2,1 C 2,0 km/h (1 Bft) 0,00 %
22.11.2014 09:00 3,1 C 76 % 1024,5 hPa 0,0 l/m 1,3 km/h (1 Bft) O 0,00 h 0,000 mm 1,0 UV-I 81 W/m -0,7 C 3,1 C 2,0 km/h (1 Bft) 0,00 %
22.11.2014 10:00 3,6 C 74 % 1024,9 hPa 0,0 l/m 5,0 km/h (1 Bft) O 0,00 h 0,000 mm 1,0 UV-I 107 W/m -0,5 C 2,7 C 7,9 km/h (2 Bft) 0,00 %
22.11.2014 11:00 4,3 C 74 % 1024,6 hPa 0,0 l/m 0,6 km/h (0 Bft) NO 0,00 h 0,000 mm 1,7 UV-I 140 W/m 0,0 C 4,3 C 3,0 km/h (1 Bft) 0,00 %
22.11.2014 12:00 4,7 C 72 % 1024,1 hPa 0,0 l/m 2,3 km/h (1 Bft) O-SO 0,00 h 0,000 mm 2,0 UV-I 181 W/m 0,2 C 4,7 C 4,0 km/h (1 Bft) 0,00 %
22.11.2014 13:00 5,4 C 71 % 1023,6 hPa 0,0 l/m 1,5 km/h (1 Bft) O 0,00 h 0,000 mm 1,0 UV-I 133 W/m 0,6 C 5,4 C 3,0 km/h (1 Bft) 0,00 %
22.11.2014 14:00 5,4 C 72 % 1023,5 hPa 0,0 l/m 2,7 km/h (1 Bft) O-SO 1,00 h 0,000 mm 1,0 UV-I 267 W/m 0,7 C 5,4 C 5,9 km/h (2 Bft) 0,00 %
22.11.2014 15:00 4,9 C 74 % 1023,5 hPa 0,0 l/m 2,6 km/h (1 Bft) O-SO 0,75 h 0,000 mm 1,0 UV-I 63 W/m 0,6 C 4,9 C 5,0 km/h (1 Bft) 0,00 %
22.11.2014 16:00 4,0 C 77 % 1023,7 hPa 0,0 l/m 0,3 km/h (0 Bft) N 0,00 h 0,000 mm 0,0 UV-I 0 W/m 0,3 C 4,0 C 1,0 km/h (0 Bft) 0,00 %
22.11.2014 17:00 3,0 C 80 % 1024,3 hPa 0,0 l/m 1,5 km/h (1 Bft) O-SO 0,00 h 0,000 mm 0,0 UV-I 0 W/m -0,1 C 3,0 C 3,0 km/h (1 Bft) 0,00 %
22.11.2014 18:00 2,3 C 79 % 1024,7 hPa 0,0 l/m 0,1 km/h (0 Bft) N 0,00 h 0,000 mm 0,0 UV-I 0 W/m -0,9 C 2,3 C 1,0 km/h (0 Bft) 0,00 %
22.11.2014 19:00 1,8 C 78 % 1025,1 hPa 0,0 l/m 0,7 km/h (0 Bft) O-SO 0,00 h 0,000 mm 0,0 UV-I 0 W/m -1,6 C 1,8 C 2,0 km/h (1 Bft) 0,00 %
22.11.2014 20:00 1,7 C 78 % 1025,3 hPa 0,0 l/m 0,0 km/h (0 Bft) N 0,00 h 0,000 mm 0,0 UV-I 0 W/m -1,7 C 1,7 C 0,0 km/h (0 Bft) 0,00 %
22.11.2014 21:00 1,8 C 78 % 1025,5 hPa 0,0 l/m 1,4 km/h (1 Bft) O 0,00 h 0,000 mm 0,0 UV-I 0 W/m -1,6 C 1,8 C 2,0 km/h (1 Bft) 0,00 %
22.11.2014 22:00 2,3 C 80 % 1025,3 hPa 0,0 l/m 1,9 km/h (1 Bft) O-SO 0,00 h 0,000 mm 0,0 UV-I 0 W/m -0,8 C 2,3 C 4,0 km/h (1 Bft) 0,00 %
22.11.2014 23:00 2,5 C 82 % 1025,4 hPa 0,0 l/m 2,3 km/h (1 Bft) O 0,00 h 0,000 mm 0,0 UV-I 0 W/m -0,3 C 2,5 C 4,0 km/h (1 Bft) 0,00 %
23.11.2014 00:00 2,5 C 82 % 1025,4 hPa 0,0 l/m 1,3 km/h (1 Bft) SO 0,00 h 0,000 mm 0,0 UV-I 0 W/m -0,3 C 2,5 C 4,0 km/h (1 Bft) 0,00 %
23.11.2014 01:00 2,6 C 83 % 1025,8 hPa 0,0 l/m 3,5 km/h (1 Bft) O-SO 0,00 h 0,000 mm 0,0 UV-I 0 W/m -0,1 C 2,6 C 5,9 km/h (2 Bft) 0,00 %
23.11.2014 02:00 2,6 C 83 % 1025,9 hPa 0,0 l/m 2,5 km/h (1 Bft) O 0,00 h 0,000 mm 0,0 UV-I 0 W/m 0,0 C 2,6 C 5,0 km/h (1 Bft) 0,00 %
23.11.2014 03:00 2,7 C 83 % 1025,6 hPa 0,0 l/m 5,0 km/h (1 Bft) O 0,00 h 0,000 mm 0,0 UV-I 0 W/m 0,1 C 1,5 C 8,9 km/h (2 Bft) 0,00 %
23.11.2014 04:00 2,7 C 83 % 1025,4 hPa 0,0 l/m 5,9 km/h (2 Bft) O 0,00 h 0,000 mm 0,0 UV-I 0 W/m 0,1 C 1,4 C 7,9 km/h (2 Bft) 0,00 %
23.11.2014 05:00 2,8 C 83 % 1025,1 hPa 0,0 l/m 4,4 km/h (1 Bft) O-SO 0,00 h 0,000 mm 0,0 UV-I 0 W/m 0,3 C 2,8 C 8,9 km/h (2 Bft) 0,00 %
23.11.2014 06:00 3,1 C 84 % 1025,2 hPa 0,0 l/m 1,8 km/h (1 Bft) O 0,00 h 0,000 mm 0,0 UV-I 0 W/m 0,6 C 3,1 C 4,0 km/h (1 Bft) 0,00 %
23.11.2014 07:00 3,1 C 84 % 1025,6 hPa 0,0 l/m 6,5 km/h (2 Bft) O-SO 0,00 h 0,000 mm 0,0 UV-I 0 W/m 0,7 C 2,1 C 9,9 km/h (2 Bft) 0,00 %
23.11.2014 08:00 3,0 C 84 % 1026,1 hPa 0,0 l/m 0,2 km/h (0 Bft) N 0,00 h 0,000 mm 0,0 UV-I 33 W/m 0,6 C 3,0 C 2,0 km/h (1 Bft) 0,00 %
23.11.2014 09:00 3,1 C 84 % 1026,3 hPa 0,0 l/m 1,0 km/h (0 Bft) O-NO 0,00 h 0,000 mm 1,0 UV-I 92 W/m 0,7 C 3,1 C 2,0 km/h (1 Bft) 0,00 %
23.11.2014 10:00 3,5 C 83 % 1026,6 hPa 0,0 l/m 5,1 km/h (1 Bft) O 0,00 h 0,000 mm 1,0 UV-I 131 W/m 0,9 C 3,3 C 8,9 km/h (2 Bft) 0,00 %
23.11.2014 11:00 3,8 C 82 % 1026,3 hPa 0,0 l/m 4,0 km/h (1 Bft) O 0,50 h 0,000 mm 1,0 UV-I 193 W/m 1,1 C 3,4 C 6,9 km/h (2 Bft) 0,00 %
23.11.2014 12:00 4,1 C 82 % 1025,8 hPa 0,0 l/m 4,7 km/h (1 Bft) O-SO 0,25 h 0,000 mm 1,0 UV-I 164 W/m 1,3 C 4,1 C 8,9 km/h (2 Bft) 0,00 %
23.11.2014 13:00 4,2 C 82 % 1025,3 hPa 0,0 l/m 4,3 km/h (1 Bft) O 0,25 h 0,000 mm 1,0 UV-I 174 W/m 1,4 C 3,9 C 7,9 km/h (2 Bft) 0,00 %
23.11.2014 14:00 4,3 C 81 % 1025,0 hPa 0,0 l/m 6,1 km/h (2 Bft) O-SO 0,25 h 0,000 mm 1,0 UV-I 112 W/m 1,3 C 3,7 C 9,9 km/h (2 Bft) 0,00 %
23.11.2014 15:00 4,3 C 81 % 1024,8 hPa 0,0 l/m 6,6 km/h (2 Bft) O-SO 0,00 h 0,000 mm 0,0 UV-I 28 W/m 1,3 C 2,8 C 10,9 km/h (2 Bft) 0,00 %
23.11.2014 16:00 4,5 C 80 % 1024,6 hPa 0,0 l/m 4,6 km/h (1 Bft) O-SO 0,00 h 0,000 mm 0,0 UV-I 0 W/m 1,3 C 4,0 C 6,9 km/h (2 Bft) 0,00 %
23.11.2014 17:00 4,6 C 79 % 1024,8 hPa 0,0 l/m 2,6 km/h (1 Bft) SO 0,00 h 0,000 mm 0,0 UV-I 0 W/m 1,2 C 4,3 C 6,0 km/h (2 Bft) 0,00 %
23.11.2014 18:00 4,7 C 79 % 1024,8 hPa 0,0 l/m 7,8 km/h (2 Bft) O 0,00 h 0,000 mm 0,0 UV-I 0 W/m 1,4 C 2,3 C 11,9 km/h (2 Bft) 0,00 %
23.11.2014 19:00 4,7 C 79 % 1024,6 hPa 0,0 l/m 9,0 km/h (2 Bft) O 0,00 h 0,000 mm 0,0 UV-I 0 W/m 1,3 C 2,7 C 15,9 km/h (3 Bft) 0,00 %
23.11.2014 20:00 4,7 C 79 % 1024,7 hPa 0,0 l/m 5,8 km/h (1 Bft) O-SO 0,00 h 0,000 mm 0,0 UV-I 0 W/m 1,3 C 4,3 C 9,9 km/h (2 Bft) 0,00 %
23.11.2014 21:00 4,6 C 79 % 1024,9 hPa 0,0 l/m 1,8 km/h (1 Bft) O 0,00 h 0,000 mm 0,0 UV-I 0 W/m 1,3 C 4,6 C 5,9 km/h (2 Bft) 0,00 %
23.11.2014 22:00 4,5 C 79 % 1024,7 hPa 0,0 l/m 9,3 km/h (2 Bft) O-SO 0,00 h 0,000 mm 0,0 UV-I 0 W/m 1,2 C 2,2 C 11,9 km/h (2 Bft) 0,00 %
23.11.2014 23:00 4,3 C 80 % 1024,7 hPa 0,0 l/m 9,4 km/h (2 Bft) O-NO 0,00 h 0,000 mm 0,0 UV-I 0 W/m 1,2 C 1,7 C 13,9 km/h (3 Bft) 0,00 %
Min-Datum _ 22.11.14 20.11.14 18.11.14 - 17.11.14 - - - - - 22.11.14 21.11.14 17.11.14 17.11.14
_ Min-Zeit 21:00 13:00 05:30 - 00:00 - - - - - 06:45 21:15 00:00 00:00
Minimum _ 1,5 C 64 % 999,6 hPa - 0,0 km/h (0 Bft) - - - - - -2,2 C -2,5 C 0,0 km/h (0 Bft) 0,00 %
Max-Datum _ 17.11.14 17.11.14 20.11.14 18.11.14 18.11.14 - 17.11.14 17.11.14 17.11.14 17.11.14 17.11.14 17.11.14 18.11.14 17.11.14
_ Max-Zeit 13:45 00:00 08:45 11:30 06:00 - 09:45 00:00 10:45 11:00 15:30 13:45 06:00 00:00
Maximum _ 10,0 C 85 % 1027,0 hPa 1,8 l/m 23,4 km/h
S (4 Bft)
- 0,25 h 0,000 mm 2,0 UV-I 554 W/m 5,4 C 10,0 C 28,1 km/h
S (4 Bft)
0,00 %
Durchschnitt _ 5,1 C 78 % 1017,8 hPa #10,8 l/m 1,9 km/h (1 Bft) O-SO #14:30 h #0,000 mm 1,1 UV-I 141 W/m 1,5 C 4,8 C 3,9 km/h (1 Bft) 0,00 %